EW8555 Weather Reports


Display with metric or nautical units.
time (UTC)temp
F
wind
direction
speed
MPH
gust
MPH
rain 1hr
in
rain 24hr
in
rain mn
in
humidity
%
barometer
mb
20260906004541 55 281 1.0 8.0 0.00 0.10 0.00 87 1020.4
20260906003033 56 235 1.0 7.0 0.00 0.10 0.00 87 1020.4
20260906001540 56 252 1.0 8.0 0.00 0.10 0.00 87 1020.4
20260906000030 56 288 4.0 11.0 0.00 0.10 0.00 87 1020.5
20260905234531 56 302 3.0 9.0 0.00 0.10 0.00 88 1020.3
20260905233028 56 290 1.0 7.0 0.00 0.10 0.00 88 1020.2
20260905231534 56 284 0.0 9.0 0.00 0.10 0.00 89 1020.1
20260905230024 56 223 1.0 9.0 0.00 0.10 0.00 89 1020.0
20260905224523 56 286 0.0 3.0 0.00 0.10 0.00 88 1019.9
20260905223020 57 294 0.0 9.0 0.00 0.10 0.00 87 1019.7
20260905221518 57 287 4.0 8.0 0.00 0.10 0.00 86 1019.8
20260905220015 57 302 2.0 10.0 0.00 0.10 0.00 86 1019.7
20260905214513 57 296 5.0 15.0 0.00 0.10 0.10 87 1019.5
20260905213010 57 294 2.0 12.0 0.00 0.10 0.10 89 1019.4
20260905211509 57 259 1.0 9.0 0.00 0.10 0.10 89 1019.3
20260905210008 57 270 2.0 10.0 0.00 0.10 0.10 88 1019.3
20260905204505 57 288 4.0 16.0 0.00 0.10 0.10 88 1019.2
20260905203003 57 263 1.0 4.0 0.00 0.10 0.10 89 1018.9
20260905201501 57 270 1.0 7.0 0.00 0.10 0.10 89 1018.8
20260905200105 57 297 1.0 5.0 0.00 0.10 0.10 89 1018.7
20260905194549 57 249 1.0 7.0 0.00 0.10 0.10 89 1018.5
20260905193009 57 240 1.0 7.0 0.00 0.10 0.10 89 1018.3
20260905191508 57 242 2.0 8.0 0.00 0.10 0.10 89 1018.2
20260905190012 58 225 1.0 5.0 0.00 0.10 0.10 88 1018.0
20260905184506 58 314 2.0 11.0 0.00 0.15 0.10 90 1017.8
20260905183002 58 264 1.0 8.0 0.00 0.15 0.10 91 1017.7
20260905181600 58 270 1.0 5.0 0.00 0.15 0.10 91 1017.4
20260905180113 59 236 2.0 7.0 0.00 0.15 0.10 92 1017.2
20260905174556 58 263 2.0 9.0 0.00 0.30 0.10 91 1017.0
20260905173113 59 231 2.0 8.0 0.01 0.30 0.10 91 1016.8
20260905171556 59 271 3.0 7.0 0.07 0.30 0.10 90 1016.7
20260905170051 59 235 1.0 7.0 0.10 0.30 0.10 90 1016.5
20260905164555 59 271 2.0 10.0 0.10 0.30 0.10 89 1016.4
20260905163050 59 279 1.0 8.0 0.09 0.28 0.09 87 1016.4
20260905161549 62 344 8.0 22.0 0.02 0.22 0.02 77 1016.4
20260905160055 66 277 5.0 21.0 0.00 0.20 0.00 63 1015.4
20260905154550 67 257 8.0 21.0 0.00 0.27 0.00 61 1015.2
20260905153043 67 242 7.0 18.0 0.00 0.27 0.00 62 1015.1
20260905151542 67 206 7.0 23.0 0.00 0.27 0.00 61 1014.9
20260905150043 68 219 7.0 23.0 0.00 0.27 0.00 58 1014.6
20260905144539 67 215 6.0 20.0 0.00 0.27 0.00 61 1014.5
20260905143040 65 309 8.0 20.0 0.00 0.27 0.00 65 1014.4
20260905141537 69 279 6.0 12.0 0.00 0.27 0.00 56 1014.0
20260905140036 69 275 10.0 24.0 0.00 0.27 0.00 54 1014.0
20260905134535 69 266 8.0 17.0 0.00 0.27 0.00 55 1014.0
20260905133037 67 277 5.0 21.0 0.00 0.27 0.00 58 1014.2
20260905131534 67 322 11.0 20.0 0.00 0.27 0.00 55 1014.4
20260905130032 69 193 8.0 20.0 0.00 0.27 0.00 52 1014.1
20260905124532 69 252 8.0 24.0 0.00 0.27 0.00 52 1013.9
20260905123033 69 311 10.0 21.0 0.00 0.27 0.00 52 1014.0
20260905121530 69 355 8.0 22.0 0.00 0.27 0.00 53 1013.8
20260905120037 68 240 7.0 18.0 0.00 0.27 0.00 58 1014.0
20260905114527 66 279 6.0 18.0 0.00 0.27 0.00 64 1014.0
20260905113029 64 287 8.0 18.0 0.00 0.27 0.00 69 1014.1
20260905111546 67 284 7.0 18.0 0.00 0.27 0.00 59 1014.0
20260905110025 67 341 7.0 20.0 0.00 0.27 0.00 60 1014.0
20260905104524 67 297 4.0 22.0 0.00 0.27 0.00 60 1014.0
20260905103028 68 244 4.0 24.0 0.00 0.27 0.00 61 1014.0
20260905101521 66 296 7.0 16.0 0.00 0.27 0.00 62 1014.1
20260905100021 67 252 5.0 15.0 0.00 0.27 0.00 63 1014.0
20260905094520 66 280 9.0 19.0 0.00 0.27 0.00 61 1014.1
20260905093020 67 242 5.0 19.0 0.00 0.27 0.00 61 1014.2
20260905091616 67 261 9.0 22.0 0.00 0.27 0.00 63 1014.1
20260905090014 66 257 6.0 16.0 0.00 0.27 0.00 66 1014.0
20260905084512 65 318 2.0 17.0 0.00 0.27 0.00 67 1014.0
20260905083010 65 288 7.0 14.0 0.00 0.27 0.00 67 1014.1
20260905081507 65 267 3.0 18.0 0.00 0.27 0.00 69 1013.9
20260905080003 64 188 4.0 13.0 0.00 0.27 0.00 72 1013.6
20260905074502 64 334 7.0 19.0 0.00 0.27 0.00 73 1013.6
20260905073103 63 101 4.0 17.0 0.00 0.27 0.00 74 1013.5
20260905071558 63 250 5.0 13.0 0.00 0.27 0.00 75 1013.3
20260905070058 63 304 3.0 19.0 0.00 0.27 0.00 77 1013.2
20260905064609 62 220 4.0 11.0 0.00 0.27 0.00 80 1013.0
20260905063050 61 259 8.0 14.0 0.00 0.27 0.00 81 1013.2
20260905061547 60 243 2.0 10.0 0.00 0.27 0.00 82 1012.9
20260905060045 60 228 2.0 13.0 0.00 0.27 0.00 84 1012.7
20260905054549 59 246 6.0 15.0 0.00 0.27 0.00 84 1012.7
20260905053042 59 245 6.0 12.0 0.00 0.27 0.00 85 1012.6
20260905051545 58 217 3.0 11.0 0.00 0.27 0.00 85 1012.4
20260905050040 58 246 1.0 13.0 0.00 0.27 0.00 86 1012.2
20260905044538 58 225 3.0 11.0 0.00 0.27 0.00 86 1012.2
20260905043035 58 284 2.0 11.0 0.00 0.27 0.00 85 1012.0
20260905041532 58 263 1.0 10.0 0.00 0.27 0.00 85 1011.9
20260905040034 58 284 5.0 12.0 0.00 0.27 0.00 85 1011.7
20260905034531 58 249 2.0 7.0 0.00 0.27 0.00 85 1011.7
20260905033028 58 284 2.0 12.0 0.00 0.27 0.00 86 1011.4
20260905031523 58 232 1.0 12.0 0.00 0.27 0.00 86 1011.4
20260905030021 58 237 4.0 10.0 0.00 0.27 0.00 86 1011.1
20260905024518 59 293 3.0 11.0 0.00 0.27 0.00 86 1010.9
20260905023016 59 240 3.0 11.0 0.00 0.27 0.00 86 1010.9
20260905021532 59 274 0.0 8.0 0.00 0.27 0.00 85 1010.9
20260905020016 60 261 1.0 8.0 0.00 0.27 0.00 85 1010.6
20260905014509 60 265 2.0 9.0 0.00 0.27 0.00 85 1010.4
20260905013007 60 292 4.0 12.0 0.00 0.27 0.00 85 1010.5
20260905011506 61 234 4.0 11.0 0.00 0.27 0.00 85 1010.3
20260905010005 61 235 3.0 10.0 0.00 0.27 0.00 85 1010.3